Powrót do katalogu

STARLINK-3799

AktywnyŁącznośćVLEO
NORAD 52382·PAYLOAD·🇺🇸 United States

Wystrzelony Apr 29, 2022 z Cape Canaveral Space Force Station

Loading…

Następne Przeloty (najbliższe 24 godziny)

TLE

ŚwieżeSource: CelesTrak SupGP

Epoka: Sep 14, 2026, 22:07 UTC

1 52382C 22045BD  26257.92201389  .00156530  00000+0  24105-2 0  2579
2 52382  53.2121  31.4146 0001829  55.0642  44.7063 15.53504894    16

Śledź STARLINK-3799 w czasie rzeczywistym z AllMySat

Download on the App Store